This is the latest recevied weather packets stored in our database for station/object WK7G. If no packets are shown the sender has not sent any weather packets the latest 10 day(s).
| Time | Temp. | Humidity | Pressure | Rain* | Wind** | Luminosity | Snow |
|---|---|---|---|---|---|---|---|
| 1777846487 | 18.33° C | 28% | 1006.8 hPa | 0 mm | - | 212 W/m² | - |
| 1777846183 | 17.78° C | 32% | 1006.5 hPa | 0 mm | - | 281 W/m² | - |
| 1777845879 | 17.78° C | 27% | 1006.5 hPa | 0 mm | - | 187 W/m² | - |
| 1777845577 | 18.33° C | 32% | 1006.9 hPa | 0 mm | - | 213 W/m² | - |
| 1777845273 | 18.33° C | 29% | 1006.5 hPa | 0 mm | - | 225 W/m² | - |
| 1777844971 | 17.78° C | 29% | 1006.8 hPa | 0 mm | - | 190 W/m² | - |
| 1777844669 | 17.78° C | 33% | 1006.8 hPa | 0 mm | - | 149 W/m² | - |
| 1777844366 | 17.78° C | 31% | 1007.1 hPa | 0 mm | - | 157 W/m² | - |
| 1777844064 | 18.33° C | 28% | 1006.9 hPa | 0 mm | - | 167 W/m² | - |
| 1777843760 | 17.78° C | 29% | 1007.4 hPa | 0 mm | - | 652 W/m² | - |
| 1777843458 | 17.78° C | 27% | 1007.1 hPa | 0 mm | - | 165 W/m² | - |
| 1777843155 | 17.22° C | 29% | 1007.3 hPa | 0 mm | - | 139 W/m² | - |
| 1777842852 | 17.78° C | 27% | 1007.5 hPa | 0 mm | - | 137 W/m² | - |
| 1777842547 | 17.78° C | 28% | 1007.4 hPa | 0 mm | - | 121 W/m² | - |
| 1777842245 | 20° C | 28% | 1007.5 hPa | 0 mm | - | 132 W/m² | - |
| 1777841939 | 19.44° C | 27% | 1007.4 hPa | 0 mm | - | 735 W/m² | - |
| 1777841636 | 18.33° C | 30% | 1007.6 hPa | 0 mm | - | 764 W/m² | - |
| 1777841332 | 18.89° C | 28% | 1007.4 hPa | 0 mm | - | 163 W/m² | - |
| 1777841029 | 18.89° C | 27% | 1007.6 hPa | 0 mm | - | 805 W/m² | - |
| 1777840727 | 18.89° C | 31% | 1007.6 hPa | 0 mm | - | 780 W/m² | - |
| 1777840424 | 19.44° C | 30% | 1007.6 hPa | 0 mm | - | 768 W/m² | - |
| 1777840121 | 18.33° C | 28% | 1007.5 hPa | 0 mm | - | 248 W/m² | - |
| 1777839819 | 18.33° C | 27% | 1007.6 hPa | 0 mm | - | 218 W/m² | - |
| 1777839518 | 18.89° C | 28% | 1008 hPa | 0 mm | - | 153 W/m² | - |
| 1777839214 | 20° C | 26% | 1008 hPa | 0 mm | - | 823 W/m² | - |
* Rain latest hour (hover to see other rain measurements)
** Current wind speed in m/s (hover to see current wind gust speed)